Weather History for Pampa, TX

Change the Weather History Date:

Monday, October 28, 2013

  Actual Average Record
Temperature  
Mean Temperature 58 °F -  
Max Temperature 69 °F 65 °F 88 °F (1975)
Min Temperature 48 °F 40 °F 26 °F (1970)
Degree Days  
Heating Degree Days 7    
Growing Degree Days 8 (Base 50)    
Moisture  
Dew Point 49 °F    
Average Humidity 73    
Maximum Humidity 93    
Minimum Humidity 47    
Precipitation  
Precipitation 0.00 in - - ()
Sea Level Pressure  
Sea Level Pressure 29.95 in    
Wind  
Wind Speed 15 mph (South)    
Max Wind Speed 24 mph    
Max Gust Speed 30 mph    
Visibility 9 miles    
Events      
Averages and records for this station are not official NWS values.
T = Trace of Precipitation, MM = Missing Value Source: NWS Daily Summary

Daily Weather History Graph

Daily Weather History Graph

Search for Another Location

Airport:

Trip Planner

Search our weather history database for the weather conditions in past years. The results will help you decide how hot, cold, wet, or windy it might be!

Date:

Astronomy

Oct. 28, 2013 Rise Set
Actual Time 8:02 AM CDT 6:52 PM CDT
Civil Twilight 7:36 AM CDT 7:18 PM CDT
Nautical Twilight 7:06 AM CDT 7:48 PM CDT
Astronomical Twilight 6:36 AM CDT 8:18 PM CDT
Moon 2:09 AM CDT 3:24 PM CDT
Length of Visible Light 11h 42m
Length of Day
10h 50m
Waning Crescent, 34% of the Moon is Illuminated
Oct 28
Waning Crescent
Nov 3
New
Nov 9
First Quarter
Nov 17
Full
Nov 25
Last Quarter

Hourly Weather History & Observations

Time (CDT) Temp. Dew Point Humidity Pressure Visibility Wind Dir Wind Speed Gust Speed Precip Events Conditions
12:15 AM 51.8 °F 32.0 °F 47% 29.95 in 10.0 mi South 13.8 mph - N/A   Clear
12:35 AM 51.8 °F 32.2 °F 47% 29.95 in 10.0 mi South 13.8 mph - N/A   Clear
12:55 AM 51.4 °F 34.3 °F 52% 29.95 in 10.0 mi South 12.7 mph - N/A   Clear
1:15 AM 51.1 °F 35.6 °F 55% 29.95 in 10.0 mi South 11.5 mph - N/A   Clear
1:35 AM 50.4 °F 35.6 °F 57% 29.95 in 10.0 mi South 11.5 mph - N/A   Clear
1:55 AM 49.5 °F 36.0 °F 60% 29.95 in 10.0 mi South 12.7 mph - N/A   Clear
2:15 AM 49.1 °F 36.5 °F 62% 29.95 in 10.0 mi South 12.7 mph - N/A   Clear
2:35 AM 48.6 °F 37.4 °F 65% 29.95 in 10.0 mi South 10.4 mph - N/A   Clear
2:55 AM 49.1 °F 38.1 °F 66% 29.95 in 10.0 mi South 11.5 mph - N/A   Clear
3:15 AM 48.2 °F 37.9 °F 68% 29.95 in 10.0 mi South 10.4 mph - N/A   Clear
3:35 AM 48.2 °F 38.3 °F 69% 29.95 in 10.0 mi South 11.5 mph - N/A   Clear
3:55 AM 48.6 °F 38.7 °F 69% 29.95 in 10.0 mi SSW 8.1 mph - N/A   Clear
4:15 AM 50.9 °F 39.2 °F 64% 29.94 in 10.0 mi SSW 11.5 mph - N/A   Clear
4:35 AM 51.1 °F 39.2 °F 64% 29.94 in 10.0 mi SSW 12.7 mph - N/A   Clear
4:55 AM 50.9 °F 39.2 °F 64% 29.95 in 10.0 mi SW 11.5 mph - N/A   Clear
5:15 AM 50.4 °F 39.2 °F 66% 29.96 in 10.0 mi SW 9.2 mph - N/A   Clear
5:35 AM 49.1 °F 39.0 °F 68% 29.96 in 10.0 mi SSW 9.2 mph - N/A   Clear
5:55 AM 49.1 °F 39.4 °F 69% 29.96 in 10.0 mi SSW 8.1 mph - N/A   Clear
6:15 AM 48.6 °F 39.6 °F 71% 29.96 in 10.0 mi SSW 9.2 mph - N/A   Clear
6:35 AM 50.4 °F 40.6 °F 69% 29.96 in 10.0 mi SSW 11.5 mph - N/A   Clear
6:55 AM 50.5 °F 41.2 °F 70% 29.96 in 10.0 mi SSW 12.7 mph - N/A   Clear
7:15 AM 50.4 °F 41.9 °F 73% 29.95 in 10.0 mi SSW 12.7 mph - N/A   Clear
7:35 AM 49.3 °F 41.9 °F 76% 29.96 in 10.0 mi South 11.5 mph - N/A   Clear
7:55 AM 48.6 °F 41.9 °F 78% 29.96 in 10.0 mi South 11.5 mph - N/A   Clear
8:15 AM 48.2 °F 42.3 °F 80% 29.96 in 10.0 mi South 11.5 mph - N/A   Clear
8:35 AM 49.1 °F 43.2 °F 80% 29.97 in 10.0 mi South 11.5 mph - N/A   Clear
8:55 AM 51.1 °F 45.3 °F 81% 29.98 in 10.0 mi South 9.2 mph - N/A   Clear
9:15 AM 55.2 °F 50.4 °F 84% 29.98 in 10.0 mi South 18.4 mph - N/A   Scattered Clouds
9:35 AM 57.4 °F 50.9 °F 79% 29.99 in 10.0 mi SSW 18.4 mph 25.3 mph N/A   Overcast
9:55 AM 58.5 °F 51.4 °F 77% 30.00 in 10.0 mi SSW 20.7 mph 26.5 mph N/A   Overcast
10:15 AM 58.8 °F 52.2 °F 79% 30.00 in 10.0 mi SSW 23.0 mph 29.9 mph N/A   Mostly Cloudy
10:35 AM 60.6 °F 53.6 °F 78% 30.00 in 10.0 mi SSW 18.4 mph 28.8 mph N/A   Scattered Clouds
10:55 AM 60.8 °F 53.6 °F 77% 30.00 in 10.0 mi South 20.7 mph 28.8 mph N/A   Scattered Clouds
11:15 AM 61.9 °F 53.6 °F 74% 29.99 in 10.0 mi South 24.2 mph 27.6 mph N/A   Scattered Clouds
11:35 AM 63.9 °F 53.6 °F 69% 29.99 in 10.0 mi South 20.7 mph 27.6 mph N/A   Clear
11:55 AM 64.9 °F 53.6 °F 67% 29.99 in 10.0 mi South 21.9 mph 26.5 mph N/A   Clear
12:15 PM 64.9 °F 53.2 °F 66% 29.99 in 10.0 mi South 23.0 mph 26.5 mph N/A   Clear
12:35 PM 64.4 °F 53.1 °F 67% 29.99 in 10.0 mi SSW 19.6 mph 27.6 mph N/A   Clear
12:55 PM 64.6 °F 54.0 °F 68% 29.99 in 10.0 mi South 21.9 mph 26.5 mph N/A   Clear
1:15 PM 64.9 °F 54.0 °F 68% 29.98 in 10.0 mi SSW 17.3 mph 25.3 mph N/A   Clear
1:35 PM 64.9 °F 54.0 °F 68% 29.97 in 10.0 mi SSW 17.3 mph - N/A   Scattered Clouds
1:55 PM 65.8 °F 54.0 °F 65% 29.95 in 10.0 mi South 16.1 mph 21.9 mph N/A   Clear
2:15 PM 66.7 °F 54.1 °F 64% 29.94 in 10.0 mi South 16.1 mph 23.0 mph N/A   Clear
2:35 PM 67.1 °F 54.5 °F 64% 29.92 in 10.0 mi South 20.7 mph 24.2 mph N/A   Clear
2:55 PM 67.5 °F 54.5 °F 63% 29.91 in 10.0 mi South 21.9 mph 27.6 mph N/A   Clear
3:15 PM 67.3 °F 54.7 °F 64% 29.91 in 10.0 mi South 19.6 mph 28.8 mph N/A   Clear
3:35 PM 67.1 °F 54.9 °F 65% 29.91 in 10.0 mi South 23.0 mph 28.8 mph N/A   Clear
3:55 PM 68.2 °F 55.0 °F 63% 29.92 in 10.0 mi South 20.7 mph 27.6 mph N/A   Scattered Clouds
4:15 PM 68.7 °F 55.4 °F 62% 29.91 in 10.0 mi South 18.4 mph 25.3 mph N/A   Clear
4:35 PM 68.9 °F 55.6 °F 62% 29.91 in 10.0 mi South 21.9 mph 27.6 mph N/A   Clear
4:55 PM 68.9 °F 55.8 °F 63% 29.91 in 10.0 mi SSE 20.7 mph 25.3 mph N/A   Scattered Clouds
5:15 PM 65.8 °F 55.8 °F 70% 29.91 in 10.0 mi SSE 19.6 mph 26.5 mph N/A   Scattered Clouds
5:35 PM 65.3 °F 56.3 °F 73% 29.91 in 10.0 mi South 18.4 mph 27.6 mph N/A   Scattered Clouds
5:55 PM 64.0 °F 56.5 °F 76% 29.91 in 10.0 mi SSE 24.2 mph - N/A   Clear
6:15 PM 63.0 °F 56.7 °F 80% 29.91 in 10.0 mi SSE 19.6 mph 28.8 mph N/A   Clear
6:35 PM 62.1 °F 56.8 °F 83% 29.91 in 10.0 mi SSE 18.4 mph 24.2 mph N/A   Clear
6:55 PM 61.0 °F 57.2 °F 87% 29.92 in 7.0 mi SSE 18.4 mph 25.3 mph N/A   Scattered Clouds
7:15 PM 61.5 °F 58.1 °F 89% 29.92 in 7.0 mi SSE 18.4 mph 26.5 mph N/A   Mostly Cloudy
7:35 PM 61.7 °F 58.6 °F 90% 29.92 in 7.0 mi SSE 19.6 mph 26.5 mph N/A   Overcast
7:55 PM 62.1 °F 59.0 °F 90% 29.92 in 7.0 mi SSE 19.6 mph 27.6 mph N/A   Overcast
8:15 PM 62.1 °F 59.2 °F 90% 29.93 in 7.0 mi SSE 18.4 mph 24.2 mph N/A   Overcast
8:35 PM 61.7 °F 59.0 °F 91% 29.94 in 7.0 mi SSE 15.0 mph 26.5 mph N/A   Mostly Cloudy
8:55 PM 61.7 °F 59.0 °F 91% 29.94 in 7.0 mi SE 19.6 mph 25.3 mph N/A   Mostly Cloudy
9:15 PM 61.7 °F 59.2 °F 91% 29.94 in 7.0 mi SSE 17.3 mph 26.5 mph N/A   Overcast
9:35 PM 61.9 °F 59.2 °F 91% 29.95 in 7.0 mi SSE 17.3 mph 27.6 mph N/A   Overcast
9:55 PM 61.3 °F 59.0 °F 92% 29.95 in 7.0 mi SSE 18.4 mph 25.3 mph N/A   Scattered Clouds
10:15 PM 61.2 °F 58.6 °F 91% 29.96 in 7.0 mi SSE 15.0 mph - N/A   Scattered Clouds
10:35 PM 61.0 °F 58.8 °F 93% 29.96 in 7.0 mi SSE 15.0 mph 21.9 mph N/A   Scattered Clouds
10:55 PM 61.0 °F 58.6 °F 92% 29.96 in 7.0 mi SSE 17.3 mph - N/A   Scattered Clouds
11:15 PM 61.0 °F 58.6 °F 92% 29.96 in 7.0 mi SSE 16.1 mph - N/A   Clear
11:35 PM 60.8 °F 58.5 °F 92% 29.95 in 7.0 mi South 15.0 mph 20.7 mph N/A   Clear
11:55 PM 61.0 °F 58.5 °F 91% 29.95 in 10.0 mi South 16.1 mph 23.0 mph N/A   Clear